Vertical_Velocity
0 -4 -3 -9 -4 -2 -2 0 -1 -1 -1 -4 -2 -0 -2 -0 6 2 1 0 1 6 2 5 5 2 1 -1 -0 -1 -0 0 -3 -5 -8 -5 -1 1 -0 -1 -1 -6 -6 -2
-4 -2 -6 -1 1 2 0 -1 0 0 1 -3 0 -4 -1 -0 -9 -6 -3 0 2 4 2 6 4 1 2 -2 -0 -2 0 -3 -0 -5 -5 -1 2 4 2 -0 0 -3 -4 -5
1 -10 1 1 1 4 -1 -2 -1 -5 1 -1 -1 -3 2 0 4 2 1 3 7 -7 -3 3 2 1 1 0 0 -1 -0 -1 -1 -4 0 2 6 5 -0 -5 -8 -9 -7 -3
-2 -10 2 3 -0 -2 1 -0 -2 -1 -4 -4 -6 -8 -2 0 2 2 -1 2 -0 3 8 6 0 0 1 0 1 -0 1 -3 -0 -1 -3 0 0 -3 1 -0 0 -4 -2 -2
-21 -1 2 1 -8 -2 -2 -2 -1 -1 -0 -4 -0 -6 -11 -1 3 -1 -3 2 4 1 1 -3 -1 1 1 2 2 3 -3 -0 -0 -5 -0 -0 -0 -0 0 -1 -4 -3 -3 -2
-2 1 1 -1 1 -1 -1 -5 -4 -2 -1 -5 -4 -8 -9 -2 -10 0 1 1 3 4 2 5 4 1 2 3 2 -2 -1 1 -3 -3 -1 -1 -2 -2 -3 -4 -7 -6 -5 -3
-2 -1 -2 -1 -5 -4 -5 -5 -5 -9 -7 -9 -0 -1 -13 -2 -1 -9 -6 1 4 4 1 -1 -1 2 2 2 -0 -0 0 3 -6 -1 0 -0 -1 -0 -2 -4 -4 -6 -4 -6
-3 -10 -1 -1 -3 -8 -2 -5 -8 -5 -2 -4 -1 -3 -14 0 -0 3 12 2 5 3 4 1 3 2 3 1 2 0 3 -9 -2 -0 1 0 0 -2 -2 -4 -2 -2 -2 -1
-3 -1 -0 -1 0 -10 -7 -1 -6 -4 -1 -5 -3 -2 -6 -1 -1 5 3 3 3 3 4 -0 2 3 0 0 -0 2 -1 -5 -1 -1 0 1 -1 -2 -3 -3 -2 -1 -0 -0
-4 -4 -1 1 -2 -3 -2 -2 -5 -5 -4 -2 -4 -1 -6 0 2 2 5 2 3 5 2 2 2 -2 2 2 4 -2 -5 -2 -3 1 1 -1 -0 -3 -0 -2 -2 -1 -2 -2
-2 -7 -9 -7 -2 -1 -5 -2 -4 -8 -3 -4 -2 -9 -3 -2 -1 -1 2 2 -2 0 0 -1 -2 4 4 4 -2 -5 -2 -2 -2 1 1 -1 -3 -2 -2 -2 -1 -2 -2 -2
-2 -3 -1 2 -0 1 1 -2 -4 -6 -6 -0 -5 -16 -0 -0 -2 -3 0 1 4 3 -1 -2 3 4 1 1 -3 -3 -1 -2 -1 2 0 -2 -2 -2 -2 -0 0 -1 -2 -0
-4 -2 -1 -0 -6 -4 2 -1 -0 -1 -2 -2 -6 -13 -0 -0 2 6 -6 3 3 1 1 2 3 2 1 -2 -1 -2 -1 -2 0 0 1 -4 -2 -1 -1 0 -1 -2 -1 -2
-10 0 -8 -11 -8 -6 3 1 0 -4 -2 -2 -6 -3 -3 -1 -0 2 6 3 -0 -1 -1 1 1 2 0 -0 -1 -1 -2 0 -1 -1 1 -4 -1 -1 -0 0 -2 -2 -2 -1
-4 1 -0 -1 -0 1 -1 -1 0 -0 -3 -5 -5 -2 -4 -3 -3 -3 -3 4 2 0 1 0 -0 0 1 -0 -2 -2 -2 1 -2 1 -1 -2 -2 -1 1 -1 -1 -1 -1 -1
1 -3 -0 -5 0 1 1 0 0 -0 0 1 0 -3 -3 0 4 4 -1 0 0 -1 1 1 3 3 1 -2 -3 -0 -2 -0 -1 1 -2 -2 -2 0 -2 0 -0 -2 -3 -1
2 -0 1 -3 -0 -1 -7 -6 -2 -1 0 -8 -3 -12 -0 2 1 -3 1 -2 -5 -4 -3 -3 1 0 -3 -5 0 -1 -2 -1 -1 2 -1 -2 -2 -1 1 0 -2 -2 -4 0
0 1 1 -1 -2 -6 -23 -0 -3 -5 -3 1 1 -0 -4 -6 -7 -1 1 -9 -0 -2 -0 4 -2 -2 -4 1 -1 -3 -1 -1 1 1 -1 -2 -1 0 0 -2 -0 -1 -1 -2
1 1 -0 -4 -0 -9 -7 -2 -2 -5 -8 -4 -3 0 -2 4 8 4 1 -1 -7 -3 3 -3 1 -3 3 0 -2 -2 -1 -1 2 1 -0 -2 0 -1 -2 -1 -1 -1 0 -1
3 1 -5 -0 -1 -2 -9 -1 1 -2 -8 0 -1 -1 -2 3 -1 -6 -3 5 6 -0 -4 -8 -0 3 -2 -2 -3 -0 -0 -1 1 2 -2 -1 0 -2 -1 1 -1 -1 -2 -3
1 0 -3 0 -1 -10 -4 -1 0 -8 -22 0 -2 -1 -1 -3 -15 -7 -0 9 7 -3 -7 1 5 -3 -0 -3 -1 -0 -1 0 2 -1 -1 -1 -1 -2 -0 1 -0 -2 -3 -1
-4 -5 -1 -1 -1 -10 0 -2 -1 -12 -0 1 1 -3 2 4 2 -2 -1 -2 -3 -9 0 7 -4 1 -2 -2 -1 -0 -1 1 1 -1 -2 -1 1 -1 -0 0 -2 -1 -1 -2
-7 -11 -10 -10 -14 -3 1 -1 -0 0 0 -1 1 3 -2 -6 -2 -3 -5 -0 0 -1 -7 -5 0 -4 -0 -2 2 -0 -2 -1 1 -1 -1 2 -2 -3 -2 0 -2 1 0 -1
0 0 -2 -5 -5 -3 -1 2 1 1 -0 -2 2 -1 -1 -11 1 1 -0 -2 -5 -2 -5 1 -2 -1 -6 -0 2 1 -2 -1 1 -0 -0 -4 -1 0 -3 0 1 2 -1 -2
-6 -2 -2 -3 -3 -0 2 0 -1 -1 -2 -1 5 -3 -7 -6 5 -2 -4 -2 2 -3 -2 0 -1 -6 -3 -0 -0 1 -2 1 -1 -1 -1 -0 -2 -5 1 2 -1 1 1 2
-1 -5 -5 -8 -5 -2 -5 1 0 -1 -1 1 -5 -0 16 -3 -7 -1 -1 0 -4 -4 -1 -2 -3 -2 -2 -1 1 -1 -0 -1 -0 -2 -2 -1 -3 2 3 -1 -2 -2 -2 -2
Height
1510 1516 1520 1508 1506 1507 1512 1518 1522 1522 1520 1525 1528 1531 1533 1534 1539 1539 1540 1541 1545 1548 1550 1552 1552 1553 1553 1553 1553 1552 1550 1547 1547 1544 1542 1537 1532 1526 1519 1515 1510 1505 1501 1494
1515 1514 1506 1505 1507 1508 1509 1517 1519 1517 1518 1523 1528 1529 1530 1531 1529 1531 1534 1537 1541 1546 1548 1551 1552 1552 1552 1553 1552 1550 1548 1546 1545 1543 1541 1537 1530 1524 1519 1515 1510 1505 1500 1494
1514 1505 1505 1508 1509 1512 1510 1514 1517 1518 1520 1521 1523 1528 1526 1525 1527 1531 1533 1535 1538 1540 1543 1548 1549 1551 1551 1552 1551 1549 1546 1546 1544 1543 1541 1536 1530 1524 1518 1514 1511 1506 1500 1493
1508 1502 1503 1504 1505 1507 1512 1502 1507 1515 1525 1536 1522 1546 1520 1519 1523 1527 1529 1531 1533 1537 1543 1546 1547 1550 1551 1551 1549 1548 1546 1545 1544 1542 1539 1533 1527 1523 1519 1516 1513 1507 1500 1493
1508 1502 1498 1500 1497 1501 1510 1506 1510 1515 1523 1528 1525 1544 1523 1520 1527 1523 1523 1525 1530 1534 1538 1542 1546 1548 1550 1549 1548 1548 1547 1545 1543 1542 1538 1533 1528 1525 1521 1517 1513 1507 1500 1492
1502 1500 1501 1497 1497 1499 1507 1513 1520 1523 1530 1557 1528 1537 1535 1523 1511 1514 1519 1523 1527 1532 1537 1542 1545 1547 1548 1548 1548 1547 1547 1545 1543 1542 1538 1533 1529 1525 1521 1517 1513 1508 1501 1492
1504 1506 1503 1504 1508 1507 1512 1526 1563 1559 1564 1559 1518 1529 1520 1506 1500 1502 1508 1517 1523 1529 1535 1539 1542 1545 1547 1547 1548 1547 1547 1544 1544 1542 1538 1533 1529 1525 1522 1518 1515 1509 1502 1493
1519 1530 1510 1508 1510 1514 1517 1522 1555 1561 1546 1537 1511 1529 1515 1500 1496 1495 1505 1515 1522 1530 1534 1538 1541 1545 1547 1548 1548 1548 1547 1545 1546 1543 1539 1534 1530 1527 1523 1520 1516 1511 1504 1497
1526 1519 1506 1508 1507 1508 1516 1523 1516 1531 1537 1545 1530 1511 1506 1502 1501 1501 1508 1515 1523 1529 1534 1537 1543 1546 1548 1548 1548 1548 1546 1547 1546 1543 1540 1535 1532 1528 1525 1522 1518 1513 1507 1500
1518 1525 1512 1509 1511 1509 1513 1518 1528 1533 1554 1557 1537 1518 1519 1508 1510 1510 1512 1516 1524 1529 1534 1539 1543 1546 1547 1548 1548 1548 1548 1547 1547 1544 1540 1537 1533 1530 1527 1523 1519 1514 1508 1502
1508 1520 1522 1511 1520 1527 1525 1532 1533 1542 1550 1542 1553 1530 1514 1511 1509 1512 1514 1517 1522 1529 1534 1539 1543 1546 1547 1548 1548 1549 1549 1548 1548 1545 1541 1538 1534 1532 1529 1525 1520 1516 1510 1504
1511 1517 1530 1527 1521 1521 1519 1524 1527 1542 1552 1547 1558 1538 1512 1511 1510 1510 1516 1520 1525 1529 1534 1538 1542 1544 1547 1547 1549 1550 1549 1549 1548 1546 1543 1539 1536 1534 1530 1527 1523 1518 1513 1507
1510 1521 1531 1536 1528 1524 1526 1521 1528 1535 1538 1541 1551 1536 1511 1510 1511 1512 1516 1522 1527 1530 1535 1538 1542 1544 1546 1548 1550 1551 1550 1550 1549 1547 1544 1540 1538 1536 1533 1529 1525 1521 1516 1510
1511 1512 1511 1513 1507 1511 1520 1510 1519 1520 1541 1537 1536 1525 1518 1513 1513 1514 1517 1522 1526 1530 1534 1538 1542 1544 1547 1549 1550 1551 1551 1551 1550 1548 1544 1542 1540 1538 1535 1532 1528 1523 1519 1513
1510 1508 1500 1496 1493 1500 1500 1500 1510 1517 1517 1519 1520 1518 1511 1509 1510 1513 1517 1522 1526 1530 1534 1537 1540 1543 1547 1549 1551 1552 1552 1552 1551 1549 1546 1544 1542 1540 1537 1534 1530 1526 1522 1517
1505 1507 1500 1504 1493 1494 1495 1493 1497 1502 1510 1509 1510 1515 1501 1502 1508 1513 1516 1520 1524 1528 1532 1536 1540 1543 1546 1549 1551 1551 1552 1552 1551 1549 1547 1546 1544 1542 1539 1536 1533 1529 1525 1520
1506 1507 1510 1507 1497 1494 1506 1495 1492 1494 1494 1495 1506 1494 1496 1500 1504 1507 1511 1516 1520 1525 1529 1533 1538 1542 1546 1549 1550 1551 1552 1552 1552 1550 1549 1548 1546 1544 1542 1539 1536 1532 1527 1523
1509 1508 1507 1506 1500 1521 1484 1474 1476 1479 1480 1484 1485 1487 1488 1491 1495 1501 1507 1512 1517 1522 1527 1532 1536 1541 1545 1547 1549 1551 1552 1552 1552 1551 1550 1550 1549 1546 1545 1542 1538 1535 1531 1527
1502 1507 1507 1508 1510 1493 1475 1468 1469 1475 1476 1473 1476 1480 1484 1489 1495 1500 1504 1508 1513 1517 1524 1529 1534 1538 1542 1546 1549 1550 1551 1553 1553 1552 1552 1552 1551 1549 1547 1544 1542 1539 1535 1531
1492 1499 1501 1514 1506 1502 1480 1466 1465 1466 1485 1467 1468 1474 1481 1487 1500 1496 1499 1506 1512 1516 1521 1527 1533 1538 1543 1546 1548 1550 1552 1553 1554 1554 1554 1554 1553 1552 1550 1548 1545 1543 1539 1536
1494 1498 1507 1521 1518 1494 1471 1466 1466 1482 1485 1467 1466 1470 1476 1482 1484 1489 1495 1503 1509 1514 1520 1526 1532 1537 1541 1545 1547 1550 1552 1554 1555 1556 1556 1555 1555 1554 1553 1551 1549 1546 1543 1540
1490 1499 1509 1510 1507 1502 1469 1468 1472 1472 1467 1467 1467 1469 1473 1478 1483 1488 1494 1500 1507 1514 1520 1527 1532 1537 1541 1544 1547 1550 1553 1555 1556 1557 1557 1557 1557 1557 1556 1554 1552 1549 1547 1544
1488 1484 1492 1489 1488 1469 1468 1468 1468 1467 1467 1466 1465 1465 1472 1477 1483 1488 1495 1501 1508 1514 1521 1528 1532 1537 1541 1544 1547 1550 1554 1555 1556 1557 1558 1560 1560 1558 1557 1556 1554 1552 1551 1548
1472 1473 1478 1480 1470 1468 1468 1468 1468 1468 1468 1466 1464 1466 1472 1478 1484 1490 1495 1503 1509 1515 1521 1527 1532 1537 1540 1544 1548 1551 1553 1555 1556 1558 1560 1560 1560 1560 1559 1558 1557 1556 1554 1552
1473 1472 1474 1475 1468 1466 1467 1468 1469 1470 1469 1466 1467 1470 1474 1479 1486 1489 1497 1504 1510 1516 1522 1527 1532 1536 1539 1544 1547 1550 1553 1555 1557 1558 1559 1561 1562 1561 1560 1560 1561 1560 1559 1558
1467 1467 1474 1477 1465 1465 1464 1466 1469 1470 1471 1470 1471 1475 1478 1480 1485 1492 1498 1505 1510 1516 1522 1528 1532 1535 1539 1543 1547 1550 1553 1555 1556 1558 1559 1561 1561 1561 1563 1564 1563 1562 1560 1559